Location: Unspecified
(48.7670°N, 0.0000°E)
Time: 11:52:51
(UTC+00:00)

A-11 Canister half - Visible Passes

Search period start: 05 August 2020 00:00
Search period end: 15 August 2020 00:00
Orbit: 1513 x 1687 km, 47.2° (Epoch: 04 August)

Date Brightness Start Highest point End Pass type
(mag) Time Alt. Az. Time Alt. Az. Time Alt. Az.
05 Aug 9.3 01:18:43 10° WNW 01:28:06 45° SW 01:37:31 10° SSE visible
05 Aug 10.3 03:26:05 10° W 03:31:05 15° WSW 03:36:03 10° SSW visible
05 Aug 9.1 20:45:55 10° WSW 20:55:46 78° SSE 21:05:55 10° E visible
05 Aug 9.0 22:50:46 10° W 23:00:47 78° SSW 23:10:58 10° ESE visible
06 Aug 9.3 00:55:46 10° WNW 01:05:13 47° SW 01:11:47 21° SSE visible
06 Aug 10.2 03:02:45 10° W 03:08:16 16° SW 03:09:24 16° SW visible
06 Aug 9.1 20:23:01 10° WSW 20:32:49 77° SSE 20:42:56 10° E visible
06 Aug 9.0 22:27:49 10° W 22:37:49 79° S 22:48:01 10° ESE visible
07 Aug 9.2 00:32:48 10° WNW 00:42:19 49° SW 00:46:18 34° SSE visible
07 Aug 10.2 02:39:30 10° W 02:44:17 17° WSW 02:44:17 17° WSW visible
07 Aug 9.1 20:00:07 10° WSW 20:09:53 76° SSE 20:19:59 10° E visible
07 Aug 9.0 22:04:54 10° W 22:14:52 80° S 22:24:38 12° ESE visible
08 Aug 9.2 00:09:51 10° WNW 00:19:24 51° SSW 00:22:41 39° SSE visible
08 Aug 10.3 02:16:17 10° W 02:20:45 18° WSW 02:20:45 18° WSW visible
08 Aug 9.1 21:41:58 10° W 21:51:55 81° S 22:01:33 12° ESE visible
08 Aug 9.2 23:46:54 10° WNW 23:56:31 53° SSW 23:59:39 41° SSE visible
09 Aug 10.3 01:53:07 10° W 01:57:44 19° WSW 01:57:44 19° WSW visible
09 Aug 9.1 21:19:02 10° W 21:28:57 82° S 21:38:45 11° ESE visible
09 Aug 9.2 23:23:57 10° WNW 23:33:36 55° SSW 23:36:52 41° SSE visible
10 Aug 10.2 01:29:58 10° W 01:34:59 20° WSW 01:34:59 20° WSW visible
10 Aug 9.1 20:56:08 10° W 21:06:01 82° S 21:16:09 10° E visible
10 Aug 9.2 23:01:02 10° WNW 23:10:42 57° SSW 23:14:17 40° SSE visible
11 Aug 10.2 01:06:52 10° W 01:12:24 22° WSW 01:12:24 22° WSW visible
11 Aug 9.1 20:33:12 10° W 20:43:03 83° S 20:53:14 10° E visible
11 Aug 9.2 22:38:05 10° WNW 22:47:47 59° SSW 22:51:49 38° SSE visible
12 Aug 10.1 00:43:48 10° W 00:49:57 24° WSW 00:49:57 24° WSW visible
12 Aug 9.2 20:10:17 10° W 20:20:06 83° S 20:30:15 10° E visible
12 Aug 9.2 22:15:10 10° WNW 22:24:52 60° SSW 22:29:27 35° SE visible
13 Aug 10.0 00:20:44 10° W 00:27:36 26° SW 00:27:36 26° SW visible
13 Aug 9.2 19:47:22 10° W 19:57:09 83° S 20:07:17 10° E visible
13 Aug 9.2 21:52:14 10° WNW 22:01:57 62° SSW 22:07:10 32° SE visible
13 Aug 10.0 23:57:42 10° W 00:05:19 28° SW 00:05:19 28° SW visible
14 Aug 9.2 21:29:18 10° WNW 21:39:02 64° SSW 21:44:57 28° SE visible
14 Aug 9.9 23:34:40 10° W 23:42:49 30° SW 23:43:07 29° SW visible
